EW1708 Weather Reports


Display with metric or nautical units.
time (UTC)temp
F
wind
direction
speed
MPH
gust
MPH
rain 1hr
in
rain 24hr
in
rain mn
in
humidity
%
barometer
mb
20260903102751 61 91 7.0 12.0 0.21 0.60 0.60 93 1009.7
20260903101751 61 91 5.0 8.0 0.19 0.57 0.58 92 1010.4
20260903100810 61 147 2.0 5.0 0.09 0.55 0.55 92 1010.6
20260903095825 61 118 4.0 8.0 0.14 0.54 0.54 92 1010.4
20260903094754 61 84 11.0 18.0 0.40 0.50 0.51 91 1009.7
20260903093750 61 80 13.0 18.0 0.11 0.46 0.46 90 1009.7
20260903092752 62 76 9.0 15.0 0.46 0.42 0.43 89 1009.6
20260903090613 63 119 2.0 8.0 0.94 0.12 0.14 85 1010.4
20260903085635 64 165 5.0 19.0 0.00 0.00 0.00 83 1010.8
20260903084700 63 213 6.0 19.0 0.00 0.00 0.00 82 1010.7
20260903083654 63 156 5.0 10.0 0.00 0.00 0.00 81 1009.3
20260903082652 63 109 5.0 10.0 0.00 0.00 0.00 81 1008.8
20260903080534 63 95 7.0 12.0 0.00 0.00 0.00 81 1008.6
20260903075533 63 90 7.0 14.0 0.00 0.00 0.00 80 1008.4
20260903074500 63 92 7.0 14.0 0.00 0.00 0.00 80 1008.4
20260903073520 63 101 7.0 13.0 0.00 0.00 0.00 80 1008.6
20260903072525 64 116 8.0 14.0 0.00 0.00 0.00 80 1008.7
20260903071501 64 103 9.0 14.0 0.00 0.00 0.00 80 1008.7
20260903065354 64 98 7.0 13.0 0.00 0.00 0.00 80 1008.9
20260903063159 65 105 7.0 13.0 0.00 0.00 0.00 79 1009.0
20260903061033 65 135 9.0 15.0 0.00 0.00 0.00 79 1008.9
20260903060037 65 127 8.0 13.0 0.00 0.00 0.00 79 1008.9
20260903055052 65 111 10.0 16.0 0.00 0.00 0.00 79 1008.4
20260903054105 66 86 11.0 17.0 0.00 0.00 0.00 78 1007.9
20260903053036 66 105 11.0 17.0 0.00 0.00 0.00 78 1007.9
20260903052036 66 98 10.0 16.0 0.00 0.00 0.00 78 1008.3
20260903051048 66 110 11.0 17.0 0.00 0.00 0.00 77 1008.7
20260903050058 67 117 11.0 17.0 0.00 0.00 0.00 77 1008.8
20260903043942 67 127 10.0 16.0 0.00 0.00 0.00 75 1009.5
20260903043004 68 113 10.0 17.0 0.00 0.00 0.00 75 1009.5
20260903041945 67 88 10.0 17.0 0.00 0.00 0.00 75 1009.7
20260903040924 67 97 10.0 15.0 0.00 0.00 0.00 75 1009.7
20260903034744 67 112 8.0 14.0 0.00 0.00 0.00 74 1009.9
20260903033717 67 96 8.0 13.0 0.00 0.00 0.00 74 1009.9
20260903032724 67 115 8.0 14.0 0.00 0.00 0.00 74 1009.8
20260903031658 68 95 8.0 14.0 0.00 0.00 0.00 74 1009.7
20260903030707 68 88 8.0 13.0 0.00 0.00 0.00 73 1009.6
20260903025654 68 108 7.0 14.0 0.00 0.00 0.00 73 1009.5
20260903024718 68 97 7.0 14.0 0.00 0.00 0.00 72 1009.5
20260903023706 69 88 7.0 13.0 0.00 0.00 0.00 70 1009.5
20260903022700 70 101 8.0 13.0 0.00 0.00 0.00 69 1009.4
20260903021705 71 104 8.0 13.0 0.00 0.00 0.00 67 1009.2
20260903020644 71 98 8.0 13.0 0.00 0.00 0.00 66 1009.2
20260903015631 72 94 8.0 13.0 0.00 0.00 0.00 64 1009.2
20260903014603 73 105 8.0 13.0 0.00 0.00 0.00 62 1009.1
20260903013549 74 111 8.0 14.0 0.00 0.00 0.00 61 1009.1
20260903012528 75 117 9.0 15.0 0.00 0.00 0.00 59 1009.1
20260903011548 76 108 10.0 17.0 0.00 0.00 0.00 58 1009.1
20260903010546 77 109 10.0 17.0 0.00 0.00 0.00 57 1009.0
20260903004406 78 110 12.0 18.0 0.00 0.00 0.00 54 1008.9
20260903003352 79 96 12.0 19.0 0.00 0.00 0.00 54 1008.9
20260903002327 80 98 11.0 21.0 0.00 0.00 0.00 52 1009.0
20260903001336 82 109 10.0 21.0 0.00 0.00 0.00 45 1009.1
20260903000325 82 120 11.0 21.0 0.00 0.00 0.00 43 1009.1
20260902235308 82 98 10.0 20.0 0.00 0.00 0.00 43 1009.2
20260902234300 83 94 11.0 20.0 0.00 0.00 0.00 42 1009.2
20260902233236 83 130 10.0 17.0 0.00 0.00 0.00 42 1009.2
20260902232207 83 146 9.0 17.0 0.00 0.00 0.00 41 1009.3
20260902231151 83 151 11.0 17.0 0.00 0.00 0.00 41 1009.3
20260902230141 83 144 10.0 17.0 0.00 0.00 0.00 41 1009.3
20260902225126 84 136 9.0 20.0 0.00 0.00 0.00 40 1009.3
20260902224104 83 128 11.0 21.0 0.00 0.00 0.00 40 1009.3
20260902223051 84 117 11.0 21.0 0.00 0.00 0.00 40 1009.4
20260902222115 84 108 11.0 20.0 0.00 0.00 0.00 40 1009.4
20260902221130 83 123 10.0 20.0 0.00 0.00 0.00 42 1009.6
20260902215001 83 123 9.0 17.0 0.00 0.00 0.00 42 1009.7
20260902213936 83 112 11.0 17.0 0.00 0.00 0.00 41 1009.8
20260902212938 84 128 8.0 17.0 0.00 0.00 0.00 41 1010.0
20260902211952 84 147 9.0 18.0 0.00 0.00 0.00 41 1010.2
20260902211007 83 130 9.0 18.0 0.00 0.00 0.00 42 1010.3
20260902210023 83 82 10.0 17.0 0.00 0.00 0.00 41 1010.3
20260902203925 83 123 9.0 18.0 0.00 0.00 0.00 41 1010.5
20260902202852 83 129 9.0 20.0 0.00 0.00 0.00 42 1010.6
20260902200812 83 107 9.0 16.0 0.00 0.00 0.00 41 1010.9
20260902194555 82 102 9.0 15.0 0.00 0.00 0.00 42 1011.1
20260902193520 83 105 9.0 14.0 0.00 0.00 0.00 42 1011.3
20260902192525 83 141 7.0 15.0 0.00 0.00 0.00 43 1011.3
20260902191506 82 107 8.0 16.0 0.00 0.00 0.00 42 1011.4
20260902190504 82 158 9.0 20.0 0.00 0.00 0.00 44 1011.6
20260902185440 82 153 9.0 20.0 0.00 0.00 0.00 45 1011.8
20260902184435 81 139 8.0 16.0 0.00 0.00 0.00 48 1011.9
20260902181215 80 126 8.0 15.0 0.00 0.00 0.00 51 1012.3
20260902175046 79 90 8.0 13.0 0.00 0.00 0.00 51 1012.7
20260902174017 79 98 7.0 15.0 0.00 0.00 0.00 52 1012.7
20260902173018 78 148 8.0 15.0 0.00 0.00 0.00 50 1012.7
20260902172008 78 162 7.0 14.0 0.00 0.00 0.00 49 1012.7
20260902171028 78 150 7.0 14.0 0.00 0.00 0.00 50 1012.8
20260902170052 77 101 7.0 13.0 0.00 0.00 0.00 51 1012.8
20260902165043 77 134 7.0 13.0 0.00 0.00 0.00 52 1013.0
20260902164009 76 148 7.0 14.0 0.00 0.00 0.00 54 1013.0
20260902161925 75 147 7.0 14.0 0.00 0.00 0.00 56 1013.1
20260902160916 75 126 8.0 14.0 0.00 0.00 0.00 55 1013.1
20260902155855 74 105 8.0 16.0 0.00 0.00 0.00 57 1013.2
20260902154901 72 98 8.0 16.0 0.00 0.00 0.00 60 1013.3
20260902153839 71 101 9.0 15.0 0.00 0.00 0.00 60 1013.3
20260902151711 69 134 7.0 14.0 0.00 0.00 0.00 67 1013.3
20260902150639 68 93 8.0 14.0 0.00 0.00 0.00 71 1013.6
20260902145618 66 107 9.0 14.0 0.00 0.00 0.00 73 1013.6
20260902144603 65 112 7.0 11.0 0.00 0.00 0.00 75 1013.7
20260902143614 64 108 7.0 12.0 0.00 0.00 0.00 76 1013.7
20260902141452 62 109 6.0 12.0 0.00 0.00 0.00 80 1013.8
20260902140457 61 113 6.0 10.0 0.00 0.00 0.00 82 1013.9
20260902135433 60 99 6.0 10.0 0.00 0.00 0.00 84 1013.8
20260902134442 59 91 7.0 10.0 0.00 0.00 0.00 85 1013.8
20260902133415 58 94 6.0 10.0 0.00 0.00 0.00 86 1013.9
20260902131242 56 98 6.0 9.0 0.00 0.00 0.00 88 1014.0
20260902130237 56 81 6.0 9.0 0.00 0.00 0.00 88 1013.9
20260902125226 55 101 6.0 9.0 0.00 0.00 0.00 88 1013.9
20260902124217 55 87 6.0 9.0 0.00 0.00 0.00 88 1013.9
20260902123216 55 86 6.0 9.0 0.00 0.00 0.00 88 1014.0
20260902122151 55 84 6.0 8.0 0.00 0.00 0.00 88 1014.0
20260902121217 55 101 6.0 10.0 0.00 0.00 0.00 88 1014.0
20260902120210 55 113 6.0 10.0 0.00 0.00 0.00 88 1014.0
20260902115233 55 96 6.0 8.0 0.00 0.00 0.00 88 1013.9
20260902114200 55 101 6.0 7.0 0.00 0.00 0.00 88 1014.0
20260902112025 55 103 5.0 8.0 0.00 0.00 0.00 89 1014.1
20260902111034 54 87 5.0 8.0 0.00 0.00 0.00 90 1014.2
20260902110028 54 88 5.0 8.0 0.00 0.00 0.00 90 1014.1
20260902105032 53 84 5.0 8.0 0.00 0.00 0.00 89 1014.2
20260902103959 53 76 5.0 6.0 0.00 0.00 0.00 89 1014.3
20260902103023 54 78 4.0 6.0 0.00 0.00 0.00 88 1014.3